Weather History for Cartersville, GA

Change the Weather History Date:

Friday, July 12, 2013

  Actual Average Record
Temperature  
Mean Temperature 78 °F 78 °F  
Max Temperature 87 °F 89 °F 93 °F (2000)
Min Temperature 68 °F 67 °F 64 °F (2003)
Cooling Degree Days 13 13  
Month to date cooling degree days 133 154  
Year to date cooling degree days 591 598  
Since 1 June cooling degree days 466 449  
Growing Degree Days 29 (Base 50)    
Moisture  
Dew Point 71 °F    
Average Humidity 76    
Maximum Humidity 100    
Minimum Humidity 51    
Precipitation  
Precipitation 0.00 in 0.18 in 1.17 in (1950)
Month to date precipitation 4.49 2.18  
Year to date precipitation 22.53 28.18  
Sea Level Pressure  
Sea Level Pressure 29.90 in    
Wind  
Wind Speed 3 mph (North)    
Max Wind Speed 14 mph    
Max Gust Speed 17 mph    
Visibility 7 miles    
Events      
T = Trace of Precipitation, MM = Missing Value Source: NWS Daily Summary

Daily Weather History Graph

Daily Weather History Graph

Search for Another Location

Airport:

Trip Planner

Search our weather history database for the weather conditions in past years. The results will help you decide how hot, cold, wet, or windy it might be!

Date:

Astronomy

Jul. 12, 2013 Rise Set
Actual Time 6:37 AM EDT 8:52 PM EDT
Civil Twilight 6:08 AM EDT 9:21 PM EDT
Nautical Twilight 5:33 AM EDT 9:56 PM EDT
Astronomical Twilight 4:55 AM EDT 10:34 PM EDT
Moon 10:39 AM EDT (7/12) 11:17 PM EDT (7/12)
Length of Visible Light 15h 12m
Length of Day
14h 15m
Waxing Crescent, 17% of the Moon is Illuminated
Jul 12
Waxing Crescent
Jul 15
First Quarter
Jul 22
Full
Jul 29
Last Quarter
Aug 6
New

Hourly Weather History & Observations

Time (EDT) Temp. Heat Index Dew Point Humidity Pressure Visibility Wind Dir Wind Speed Gust Speed Precip Events Conditions
12:53 AM 72.0 °F - 72.0 °F 100% 29.89 in 7.0 mi Calm Calm - N/A   Clear
1:53 AM 72.0 °F - 72.0 °F 100% 29.88 in 6.0 mi Calm Calm - N/A   Clear
2:53 AM 73.0 °F - 72.0 °F 96% 29.88 in 7.0 mi Calm Calm - N/A   Mostly Cloudy
3:53 AM 72.0 °F - 72.0 °F 100% 29.87 in 5.0 mi Calm Calm - N/A   Mostly Cloudy
4:34 AM 71.6 °F - 71.6 °F 100% 29.91 in 6.0 mi Calm Calm - N/A   Mostly Cloudy
4:48 AM 71.6 °F - 71.6 °F 100% 29.91 in 5.0 mi Calm Calm - N/A   Overcast
4:53 AM 72.0 °F - 72.0 °F 100% 29.87 in 5.0 mi Calm Calm - N/A   Mostly Cloudy
5:28 AM 71.6 °F - 71.6 °F 100% 29.91 in 6.0 mi Calm Calm - N/A   Scattered Clouds
5:37 AM 71.6 °F - 71.6 °F 100% 29.91 in 6.0 mi Calm Calm - N/A   Mostly Cloudy
5:53 AM 72.0 °F - 72.0 °F 100% 29.88 in 5.0 mi Calm Calm - N/A   Overcast
6:48 AM 73.4 °F - 73.4 °F 100% 29.91 in 1.8 mi Calm Calm - N/A   Overcast
6:49 AM 73.0 °F - 73.0 °F 100% 29.88 in 1.8 mi Calm Calm - N/A   Overcast
7:42 AM 73.4 °F - 73.4 °F 100% 29.93 in 3.0 mi North 4.6 mph - N/A   Overcast
7:53 AM 73.0 °F - 73.0 °F 100% 29.89 in 4.0 mi NNE 3.5 mph - N/A   Overcast
8:53 AM 75.0 °F - 73.0 °F 94% 29.91 in 6.0 mi Calm Calm - N/A   Overcast
9:53 AM 75.9 °F - 73.0 °F 91% 29.92 in 6.0 mi Calm Calm - N/A   Overcast
10:17 AM 75.2 °F - 73.4 °F 94% 29.96 in 8.0 mi Calm Calm - N/A   Overcast
10:53 AM 77.0 °F - 73.0 °F 88% 29.92 in 10.0 mi Calm Calm - N/A   Overcast
11:53 AM 77.0 °F - 72.0 °F 84% 29.93 in 10.0 mi NNW 3.5 mph - N/A   Overcast
12:53 PM 81.0 °F 85.8 °F 73.0 °F 77% 29.91 in 10.0 mi ENE 3.5 mph - N/A   Mostly Cloudy
1:13 PM 82.4 °F 88.2 °F 73.4 °F 74% 29.94 in 10.0 mi Calm Calm - N/A   Scattered Clouds
1:53 PM 84.0 °F 89.6 °F 72.0 °F 67% 29.89 in 10.0 mi Variable 5.8 mph - N/A   Scattered Clouds
2:53 PM 86.0 °F 92.2 °F 72.0 °F 63% 29.89 in 10.0 mi Variable 6.9 mph - N/A   Partly Cloudy
3:53 PM 86.0 °F 90.7 °F 70.0 °F 59% 29.88 in 10.0 mi NNW 8.1 mph - N/A   Partly Cloudy
4:53 PM 87.1 °F 90.6 °F 68.0 °F 53% 29.86 in 10.0 mi North 9.2 mph 17.3 mph N/A   Clear
5:53 PM 86.0 °F 88.8 °F 66.9 °F 53% 29.88 in 10.0 mi North 6.9 mph - N/A   Clear
6:53 PM 84.9 °F 88.2 °F 68.0 °F 57% 29.88 in 10.0 mi North 6.9 mph - N/A   Scattered Clouds
7:53 PM 82.0 °F 84.5 °F 66.9 °F 60% 29.88 in 10.0 mi North 6.9 mph - N/A   Clear
8:53 PM 78.1 °F - 66.9 °F 68% 29.91 in 10.0 mi North 3.5 mph - N/A   Partly Cloudy
9:53 PM 73.0 °F - 69.1 °F 87% 29.92 in 9.0 mi Calm Calm - N/A   Scattered Clouds
10:53 PM 71.1 °F - 69.1 °F 93% 29.94 in 9.0 mi Calm Calm - N/A   Partly Cloudy
11:53 PM 70.0 °F - 69.1 °F 97% 29.94 in 8.0 mi Calm Calm - N/A   Clear